Year,Month,Day,Hour,Minute,Value (Times are PST for temperature in C)
2015,11,20,00,01,4.60
2015,11,20,00,02,4.70
2015,11,20,00,03,4.70
2015,11,20,00,04,4.70
2015,11,20,00,06,4.70
2015,11,20,00,07,4.70
2015,11,20,00,09,4.70
2015,11,20,00,10,4.70
2015,11,20,00,12,4.70
2015,11,20,00,13,4.70
2015,11,20,00,14,4.70
2015,11,20,00,16,4.60
2015,11,20,00,17,4.60
2015,11,20,00,18,4.60
2015,11,20,00,19,4.60
2015,11,20,00,21,4.60
2015,11,20,00,22,4.60
2015,11,20,00,23,4.60
2015,11,20,00,24,4.60
2015,11,20,00,26,4.50
2015,11,20,00,27,4.50
2015,11,20,00,28,4.50
2015,11,20,00,29,4.40
2015,11,20,00,31,4.40
2015,11,20,00,32,4.40
2015,11,20,00,33,4.50
2015,11,20,00,34,4.60
2015,11,20,00,36,4.70
2015,11,20,00,37,4.80
2015,11,20,00,38,4.90
2015,11,20,00,39,4.90
2015,11,20,00,41,5.10
2015,11,20,00,42,5.10
2015,11,20,00,43,5.20
2015,11,20,00,44,5.30
2015,11,20,00,46,5.30
2015,11,20,00,47,5.40
2015,11,20,00,48,5.50
2015,11,20,00,49,5.50
2015,11,20,00,51,5.60
2015,11,20,00,52,5.70
2015,11,20,00,53,5.70
2015,11,20,00,54,5.70
2015,11,20,00,56,5.70
2015,11,20,00,57,5.70
2015,11,20,00,58,5.70
2015,11,20,00,59,5.80
2015,11,20,01,01,5.80
2015,11,20,01,02,5.80
2015,11,20,01,03,5.80
2015,11,20,01,04,5.80
2015,11,20,01,06,5.90
2015,11,20,01,07,5.90
2015,11,20,01,08,5.90
2015,11,20,01,09,5.90
2015,11,20,01,11,5.80
2015,11,20,01,12,5.80
2015,11,20,01,13,5.80
2015,11,20,01,14,5.70
2015,11,20,01,16,5.70
2015,11,20,01,17,5.70
2015,11,20,01,18,5.70
2015,11,20,01,19,5.70
2015,11,20,01,21,5.70
2015,11,20,01,22,5.70
2015,11,20,01,23,5.70
2015,11,20,01,24,5.70
2015,11,20,01,26,5.70
2015,11,20,01,27,5.70
2015,11,20,01,28,5.70
2015,11,20,01,29,5.70
2015,11,20,01,31,5.70
2015,11,20,01,32,5.70
2015,11,20,01,33,5.70
2015,11,20,01,34,5.70
2015,11,20,01,36,5.70
2015,11,20,01,37,5.70
2015,11,20,01,38,5.70
2015,11,20,01,39,5.70
2015,11,20,01,41,5.70
2015,11,20,01,42,5.70
2015,11,20,01,43,5.70
2015,11,20,01,44,5.70
2015,11,20,01,46,5.70
2015,11,20,01,47,5.70
2015,11,20,01,48,5.70
2015,11,20,01,49,5.70
2015,11,20,01,51,5.70
2015,11,20,01,52,5.70
2015,11,20,01,53,5.70
2015,11,20,01,54,5.70
2015,11,20,01,55,5.70
2015,11,20,01,56,5.70
2015,11,20,01,57,5.70
2015,11,20,01,58,5.70
2015,11,20,01,59,5.70
2015,11,20,02,00,5.70
2015,11,20,02,01,5.70
2015,11,20,02,02,5.70
2015,11,20,02,03,5.70
2015,11,20,02,04,5.70
2015,11,20,02,05,5.70
2015,11,20,02,06,5.70
2015,11,20,02,07,5.70
2015,11,20,02,08,5.70
2015,11,20,02,09,5.70
2015,11,20,02,10,5.70
2015,11,20,02,11,5.70
2015,11,20,02,12,5.70
2015,11,20,02,13,5.70
2015,11,20,02,14,5.70
2015,11,20,02,15,5.70
2015,11,20,02,16,5.70
2015,11,20,02,17,5.70
2015,11,20,02,18,5.70
2015,11,20,02,19,5.70
2015,11,20,02,20,5.70
2015,11,20,02,21,5.70
2015,11,20,02,22,5.70
2015,11,20,02,23,5.70
2015,11,20,02,24,5.70
2015,11,20,02,26,5.70
2015,11,20,02,27,5.70
2015,11,20,02,28,5.70
2015,11,20,02,29,5.70
2015,11,20,02,31,5.70
2015,11,20,02,32,5.70
2015,11,20,02,33,5.70
2015,11,20,02,34,5.70
2015,11,20,02,36,5.70
2015,11,20,02,37,5.70
2015,11,20,02,38,5.70
2015,11,20,02,39,5.70
2015,11,20,02,41,5.70
2015,11,20,02,42,5.70
2015,11,20,02,43,5.70
2015,11,20,02,44,5.70
2015,11,20,02,46,5.70
2015,11,20,02,47,5.70
2015,11,20,02,48,5.70
2015,11,20,02,49,5.70
2015,11,20,02,51,5.70
2015,11,20,02,52,5.70
2015,11,20,02,53,5.70
2015,11,20,02,54,5.70
2015,11,20,02,56,5.70
2015,11,20,02,57,5.70
2015,11,20,02,58,5.70
2015,11,20,02,59,5.70
2015,11,20,03,01,5.70
2015,11,20,03,02,5.70
2015,11,20,03,03,5.70
2015,11,20,03,04,5.70
2015,11,20,03,06,5.70
2015,11,20,03,07,5.70
2015,11,20,03,08,5.70
2015,11,20,03,09,5.70
2015,11,20,03,11,5.70
2015,11,20,03,12,5.70
2015,11,20,03,13,5.70
2015,11,20,03,14,5.70
2015,11,20,03,16,5.70
2015,11,20,03,17,5.70
2015,11,20,03,18,5.70
2015,11,20,03,19,5.70
2015,11,20,03,21,5.70
2015,11,20,03,22,5.70
2015,11,20,03,23,5.70
2015,11,20,03,24,5.70
2015,11,20,03,26,5.70
2015,11,20,03,27,5.70
2015,11,20,03,28,5.70
2015,11,20,03,29,5.70
2015,11,20,03,31,5.70
2015,11,20,03,32,5.70
2015,11,20,03,33,5.70
2015,11,20,03,34,5.70
2015,11,20,03,36,5.70
2015,11,20,03,37,5.80
2015,11,20,03,38,5.80
2015,11,20,03,39,5.80
2015,11,20,03,41,5.80
2015,11,20,03,42,5.80
2015,11,20,03,43,5.80
2015,11,20,03,44,5.80
2015,11,20,03,46,5.90
2015,11,20,03,47,5.90
2015,11,20,03,48,5.90
2015,11,20,03,49,5.90
2015,11,20,03,51,5.90
2015,11,20,03,52,5.90
2015,11,20,03,53,5.90
2015,11,20,03,54,5.90
2015,11,20,03,56,5.90
2015,11,20,03,57,5.90
2015,11,20,03,58,6.00
2015,11,20,03,59,6.00
2015,11,20,04,01,6.00
2015,11,20,04,02,6.00
2015,11,20,04,03,6.00
2015,11,20,04,04,6.00
2015,11,20,04,06,6.10
2015,11,20,04,07,6.10
2015,11,20,04,08,6.10
2015,11,20,04,09,6.10
2015,11,20,04,10,6.00
2015,11,20,04,11,6.00
2015,11,20,04,12,6.00
2015,11,20,04,13,6.00
2015,11,20,04,14,6.00
2015,11,20,04,15,6.00
2015,11,20,04,16,5.90
2015,11,20,04,17,5.90
2015,11,20,04,18,5.90
2015,11,20,04,19,5.90
2015,11,20,04,20,5.90
2015,11,20,04,21,5.80
2015,11,20,04,22,5.80
2015,11,20,04,23,5.80
2015,11,20,04,24,5.80
2015,11,20,04,25,5.80
2015,11,20,04,26,5.80
2015,11,20,04,27,5.70
2015,11,20,04,28,5.70
2015,11,20,04,29,5.70
2015,11,20,04,30,5.70
2015,11,20,04,31,5.70
2015,11,20,04,33,5.70
2015,11,20,04,34,5.70
2015,11,20,04,36,5.70
2015,11,20,04,37,5.70
2015,11,20,04,38,5.70
2015,11,20,04,39,5.60
2015,11,20,04,41,5.60
2015,11,20,04,42,5.60
2015,11,20,04,43,5.50
2015,11,20,04,44,5.50
2015,11,20,04,46,5.50
2015,11,20,04,47,5.50
2015,11,20,04,48,5.50
2015,11,20,04,49,5.50
2015,11,20,04,51,5.40
2015,11,20,04,52,5.40
2015,11,20,04,53,5.40
2015,11,20,04,54,5.40
2015,11,20,04,56,5.40
2015,11,20,04,57,5.40
2015,11,20,04,58,5.40
2015,11,20,04,59,5.40
2015,11,20,05,01,5.30
2015,11,20,05,02,5.30
2015,11,20,05,03,5.30
2015,11,20,05,04,5.30
2015,11,20,05,06,5.30
2015,11,20,05,07,5.30
2015,11,20,05,08,5.30
2015,11,20,05,09,5.30
2015,11,20,05,11,5.30
2015,11,20,05,12,5.30
2015,11,20,05,13,5.30
2015,11,20,05,14,5.30
2015,11,20,05,16,5.30
2015,11,20,05,17,5.30
2015,11,20,05,18,5.30
2015,11,20,05,19,5.30
2015,11,20,05,21,5.30
2015,11,20,05,22,5.30
2015,11,20,05,23,5.30
2015,11,20,05,24,5.30
2015,11,20,05,26,5.20
2015,11,20,05,27,5.20
2015,11,20,05,28,5.20
2015,11,20,05,29,5.20
2015,11,20,05,31,5.20
2015,11,20,05,32,5.20
2015,11,20,05,33,5.20
2015,11,20,05,34,5.20
2015,11,20,05,36,5.20
2015,11,20,05,37,5.20
2015,11,20,05,38,5.10
2015,11,20,05,39,5.10
2015,11,20,05,41,5.10
2015,11,20,05,42,5.10
2015,11,20,05,43,5.10
2015,11,20,05,44,5.10
2015,11,20,05,46,5.10
2015,11,20,05,47,5.10
2015,11,20,05,48,5.10
2015,11,20,05,49,5.10
2015,11,20,05,51,5.10
2015,11,20,05,52,5.10
2015,11,20,05,53,5.10
2015,11,20,05,54,5.10
2015,11,20,05,56,5.10
2015,11,20,05,57,5.10
2015,11,20,05,58,5.10
2015,11,20,05,59,5.10
2015,11,20,06,01,5.10
2015,11,20,06,02,5.10
2015,11,20,06,03,5.10
2015,11,20,06,04,5.10
2015,11,20,06,06,5.10
2015,11,20,06,07,5.10
2015,11,20,06,08,5.10
2015,11,20,06,09,5.10
2015,11,20,06,11,5.10
2015,11,20,06,12,5.10
2015,11,20,06,13,5.10
2015,11,20,06,14,5.10
2015,11,20,06,16,5.10
2015,11,20,06,17,5.10
2015,11,20,06,18,5.10
2015,11,20,06,19,5.10
2015,11,20,06,21,5.10
2015,11,20,06,22,5.10
2015,11,20,06,23,5.10
2015,11,20,06,24,5.10
2015,11,20,06,26,5.10
2015,11,20,06,27,5.10
2015,11,20,06,28,5.10
2015,11,20,06,29,5.10
2015,11,20,06,31,5.10
2015,11,20,06,32,5.10
2015,11,20,06,33,5.10
2015,11,20,06,34,5.10
2015,11,20,06,35,5.10
2015,11,20,06,36,5.10
2015,11,20,06,37,5.10
2015,11,20,06,38,5.10
2015,11,20,06,39,5.10
2015,11,20,06,40,5.10
2015,11,20,06,41,5.10
2015,11,20,06,42,5.10
2015,11,20,06,43,5.10
2015,11,20,06,44,5.10
2015,11,20,06,45,5.10
2015,11,20,06,46,5.10
2015,11,20,06,47,5.10
2015,11,20,06,48,5.10
2015,11,20,06,49,5.10
2015,11,20,06,50,5.10
2015,11,20,06,51,5.10
2015,11,20,06,52,5.10
2015,11,20,06,53,5.10
2015,11,20,06,54,5.10
2015,11,20,06,55,5.10
2015,11,20,06,56,5.10
2015,11,20,06,57,5.10
2015,11,20,06,58,5.10
2015,11,20,06,59,5.10
2015,11,20,07,00,5.10
2015,11,20,07,02,5.10
2015,11,20,07,03,5.10
2015,11,20,07,04,5.10
2015,11,20,07,06,5.10
2015,11,20,07,07,5.10
2015,11,20,07,08,5.10
2015,11,20,07,09,5.10
2015,11,20,07,11,5.10
2015,11,20,07,12,5.10
2015,11,20,07,13,5.10
2015,11,20,07,14,5.10
2015,11,20,07,16,5.10
2015,11,20,07,17,5.10
2015,11,20,07,18,5.10
2015,11,20,07,19,5.10
2015,11,20,07,21,5.10
2015,11,20,07,22,4.90
2015,11,20,07,23,4.90
2015,11,20,07,24,4.90
2015,11,20,07,26,4.90
2015,11,20,07,27,4.90
2015,11,20,07,28,4.90
2015,11,20,07,29,4.90
2015,11,20,07,31,4.90
2015,11,20,07,32,4.90
2015,11,20,07,33,4.90
2015,11,20,07,34,4.90
2015,11,20,07,36,4.90
2015,11,20,07,37,4.90
2015,11,20,07,38,4.90
2015,11,20,07,39,4.90
2015,11,20,07,41,4.90
2015,11,20,07,42,4.90
2015,11,20,07,43,4.90
2015,11,20,07,44,4.90
2015,11,20,07,46,4.90
2015,11,20,07,47,4.90
2015,11,20,07,48,4.90
2015,11,20,07,49,4.90
2015,11,20,07,51,4.90
2015,11,20,07,52,4.90
2015,11,20,07,53,5.10
2015,11,20,07,54,5.10
2015,11,20,07,56,5.10
2015,11,20,07,57,5.10
2015,11,20,07,58,5.10
2015,11,20,07,59,5.10
2015,11,20,08,01,5.10
2015,11,20,08,02,5.10
2015,11,20,08,03,5.10
2015,11,20,08,04,5.10
2015,11,20,08,06,5.10
2015,11,20,08,07,5.10
2015,11,20,08,08,5.10
2015,11,20,08,09,5.10
2015,11,20,08,11,5.10
2015,11,20,08,12,5.10
2015,11,20,08,13,5.10
2015,11,20,08,14,5.10
2015,11,20,08,16,5.10
2015,11,20,08,17,5.10
2015,11,20,08,18,5.10
2015,11,20,08,19,5.10
2015,11,20,08,21,5.20
2015,11,20,08,22,5.20
2015,11,20,08,23,5.20
2015,11,20,08,24,5.20
2015,11,20,08,26,5.30
2015,11,20,08,27,5.30
2015,11,20,08,28,5.30
2015,11,20,08,29,5.30
2015,11,20,08,31,5.30
2015,11,20,08,32,5.30
2015,11,20,08,33,5.30
2015,11,20,08,34,5.20
2015,11,20,08,36,5.20
2015,11,20,08,37,5.20
2015,11,20,08,38,5.20
2015,11,20,08,39,5.10
2015,11,20,08,41,5.10
2015,11,20,08,42,5.10
2015,11,20,08,43,5.10
2015,11,20,08,44,4.90
2015,11,20,08,45,4.90
2015,11,20,08,46,4.90
2015,11,20,08,47,4.90
2015,11,20,08,48,4.90
2015,11,20,08,49,4.90
2015,11,20,08,50,4.90
2015,11,20,08,51,4.90
2015,11,20,08,52,4.90
2015,11,20,08,53,4.90
2015,11,20,08,54,4.90
2015,11,20,08,55,4.90
2015,11,20,08,56,4.90
2015,11,20,08,57,4.90
2015,11,20,08,58,5.10
2015,11,20,08,59,5.10
2015,11,20,09,00,5.10
2015,11,20,09,01,5.10
2015,11,20,09,02,5.10
2015,11,20,09,03,5.10
2015,11,20,09,04,5.10
2015,11,20,09,05,5.10
2015,11,20,09,06,5.10
2015,11,20,09,08,5.10
2015,11,20,09,09,5.10
2015,11,20,09,11,5.10
2015,11,20,09,12,5.10
2015,11,20,09,13,5.10
2015,11,20,09,14,5.10
2015,11,20,09,16,5.20
2015,11,20,09,17,5.20
2015,11,20,09,18,5.30
2015,11,20,09,19,5.30
2015,11,20,09,21,5.30
2015,11,20,09,22,5.30
2015,11,20,09,23,5.30
2015,11,20,09,24,5.30
2015,11,20,09,26,5.30
2015,11,20,09,27,5.30
2015,11,20,09,28,5.30
2015,11,20,09,29,5.40
2015,11,20,09,31,5.40
2015,11,20,09,32,5.40
2015,11,20,09,33,5.50
2015,11,20,09,34,5.50
2015,11,20,09,36,5.60
2015,11,20,09,37,5.60
2015,11,20,09,38,5.70
2015,11,20,09,39,5.70
2015,11,20,09,41,5.70
2015,11,20,09,42,5.70
2015,11,20,09,43,5.80
2015,11,20,09,44,5.80
2015,11,20,09,46,5.80
2015,11,20,09,47,5.80
2015,11,20,09,48,5.90
2015,11,20,09,49,5.80
2015,11,20,09,51,5.80
2015,11,20,09,52,5.80
2015,11,20,09,53,5.80
2015,11,20,09,54,5.80
2015,11,20,09,56,5.80
2015,11,20,09,57,5.80
2015,11,20,09,58,5.80
2015,11,20,09,59,5.90
2015,11,20,10,01,5.90
2015,11,20,10,02,5.90
2015,11,20,10,03,5.90
2015,11,20,10,04,5.90
2015,11,20,10,06,6.00
2015,11,20,10,07,6.00
2015,11,20,10,08,6.00
2015,11,20,10,09,6.00
2015,11,20,10,11,6.00
2015,11,20,10,12,6.00
2015,11,20,10,13,6.00
2015,11,20,10,14,6.00
2015,11,20,10,16,6.00
2015,11,20,10,17,6.00
2015,11,20,10,18,6.00
2015,11,20,10,19,6.00
2015,11,20,10,21,6.00
2015,11,20,10,22,6.00
2015,11,20,10,23,6.00
2015,11,20,10,24,6.00
2015,11,20,10,26,6.00
2015,11,20,10,27,6.00
2015,11,20,10,28,6.00
2015,11,20,10,29,6.00
2015,11,20,10,31,6.10
2015,11,20,10,32,6.10
2015,11,20,10,33,6.10
2015,11,20,10,34,6.10
2015,11,20,10,36,6.10
2015,11,20,10,37,6.10
2015,11,20,10,38,6.10
2015,11,20,10,39,6.10
2015,11,20,10,41,6.10
2015,11,20,10,42,6.20
2015,11,20,10,43,6.20
2015,11,20,10,44,6.20
2015,11,20,10,46,6.20
2015,11,20,10,47,6.20
2015,11,20,10,48,6.20
2015,11,20,10,49,6.10
2015,11,20,10,51,6.10
2015,11,20,10,52,6.20
2015,11,20,10,53,6.20
2015,11,20,10,54,6.20
2015,11,20,10,56,6.20
2015,11,20,10,57,6.20
2015,11,20,10,58,6.20
2015,11,20,10,59,6.20
2015,11,20,11,01,6.20
2015,11,20,11,02,6.20
2015,11,20,11,03,6.20
2015,11,20,11,04,6.20
2015,11,20,11,06,6.20
2015,11,20,11,07,6.20
2015,11,20,11,24,6.40
2015,11,20,11,25,6.40
2015,11,20,11,26,6.40
2015,11,20,11,27,6.40
2015,11,20,11,28,6.30
2015,11,20,11,29,6.30
2015,11,20,11,30,6.30
2015,11,20,11,31,6.40
2015,11,20,11,32,6.40
2015,11,20,11,33,6.40
2015,11,20,11,34,6.40
2015,11,20,11,36,6.40
2015,11,20,11,37,6.40
2015,11,20,11,38,6.40
2015,11,20,11,39,6.40
2015,11,20,11,41,6.40
2015,11,20,11,42,6.40
2015,11,20,11,43,6.40
2015,11,20,11,44,6.40
2015,11,20,11,46,6.40
2015,11,20,11,47,6.40
2015,11,20,11,48,6.40
2015,11,20,11,49,6.40
2015,11,20,11,51,6.40
2015,11,20,11,52,6.40
2015,11,20,11,53,6.40
2015,11,20,11,54,6.40
2015,11,20,11,56,6.40
2015,11,20,11,57,6.40
2015,11,20,11,58,6.40
2015,11,20,11,59,6.40
2015,11,20,12,01,6.40
2015,11,20,12,02,6.40
2015,11,20,12,03,6.40
2015,11,20,12,04,6.40
2015,11,20,12,06,6.40
2015,11,20,12,07,6.40
2015,11,20,12,08,6.40
2015,11,20,12,09,6.40
2015,11,20,12,11,6.40
2015,11,20,12,12,6.40
2015,11,20,12,13,6.40
2015,11,20,12,14,6.40
2015,11,20,12,16,6.40
2015,11,20,12,17,6.40
2015,11,20,12,18,6.40
2015,11,20,12,19,6.40
2015,11,20,12,21,6.40
2015,11,20,12,22,6.40
2015,11,20,12,23,6.40
2015,11,20,12,24,6.40
2015,11,20,12,26,6.40
2015,11,20,12,27,6.40
2015,11,20,12,28,6.40
2015,11,20,12,29,6.40
2015,11,20,12,31,6.60
2015,11,20,12,32,6.60
2015,11,20,12,33,6.60
2015,11,20,12,34,6.60
2015,11,20,12,36,6.60
2015,11,20,12,37,6.60
2015,11,20,12,38,6.60
2015,11,20,12,39,6.60
2015,11,20,12,41,6.60
2015,11,20,12,42,6.60
2015,11,20,12,43,6.60
2015,11,20,12,44,6.60
2015,11,20,12,46,6.60
2015,11,20,12,47,6.60
2015,11,20,12,48,6.60
2015,11,20,12,49,6.60
2015,11,20,12,51,6.60
2015,11,20,12,52,6.60
2015,11,20,12,53,6.60
2015,11,20,12,54,6.60
2015,11,20,12,56,6.60
2015,11,20,12,57,6.60
2015,11,20,12,58,6.60
2015,11,20,12,59,6.60
2015,11,20,13,01,6.60
2015,11,20,13,02,6.60
2015,11,20,13,03,6.60
2015,11,20,13,04,6.60
2015,11,20,13,06,6.60
2015,11,20,13,07,6.60
2015,11,20,13,08,6.60
2015,11,20,13,09,6.60
2015,11,20,13,11,6.60
2015,11,20,13,12,6.60
2015,11,20,13,13,6.70
2015,11,20,13,14,6.60
2015,11,20,13,16,6.60
2015,11,20,13,17,6.60
2015,11,20,13,18,6.60
2015,11,20,13,19,6.60
2015,11,20,13,21,6.70
2015,11,20,13,22,6.70
2015,11,20,13,23,6.70
2015,11,20,13,24,6.70
2015,11,20,13,25,6.70
2015,11,20,13,26,6.70
2015,11,20,13,27,6.70
2015,11,20,13,28,6.70
2015,11,20,13,29,6.70
2015,11,20,13,30,6.70
2015,11,20,13,31,6.70
2015,11,20,13,32,6.70
2015,11,20,13,33,6.70
2015,11,20,13,34,6.70
2015,11,20,13,35,6.70
2015,11,20,13,36,6.70
2015,11,20,13,37,6.70
2015,11,20,13,38,6.70
2015,11,20,13,39,6.70
2015,11,20,13,40,6.70
2015,11,20,13,41,6.70
2015,11,20,13,42,6.70
2015,11,20,13,43,6.70
2015,11,20,13,44,6.70
2015,11,20,13,45,6.70
2015,11,20,13,46,6.70
2015,11,20,13,48,6.70
2015,11,20,13,49,6.70
2015,11,20,13,51,6.70
2015,11,20,13,53,6.70
2015,11,20,13,54,6.60
2015,11,20,13,56,6.60
2015,11,20,13,57,6.60
2015,11,20,13,58,6.60
2015,11,20,13,59,6.60
2015,11,20,14,01,6.60
2015,11,20,14,02,6.60
2015,11,20,14,03,6.60
2015,11,20,14,04,6.60
2015,11,20,14,06,6.60
2015,11,20,14,07,6.60
2015,11,20,14,08,6.60
2015,11,20,14,09,6.60
2015,11,20,14,11,6.60
2015,11,20,14,12,6.60
2015,11,20,14,13,6.60
2015,11,20,14,14,6.60
2015,11,20,14,16,6.60
2015,11,20,14,17,6.60
2015,11,20,14,18,6.60
2015,11,20,14,19,6.60
2015,11,20,14,21,6.60
2015,11,20,14,22,6.60
2015,11,20,14,23,6.60
2015,11,20,14,24,6.60
2015,11,20,14,26,6.60
2015,11,20,14,27,6.60
2015,11,20,14,28,6.60
2015,11,20,14,29,6.60
2015,11,20,14,31,6.70
2015,11,20,14,32,6.70
2015,11,20,14,33,6.70
2015,11,20,14,34,6.70
2015,11,20,14,36,6.70
2015,11,20,14,37,6.70
2015,11,20,14,38,6.70
2015,11,20,14,39,6.70
2015,11,20,14,41,6.70
2015,11,20,14,42,6.80
2015,11,20,14,43,6.70
2015,11,20,14,44,6.70
2015,11,20,14,46,6.70
2015,11,20,14,47,6.70
2015,11,20,14,48,6.70
2015,11,20,14,49,6.70
2015,11,20,14,51,6.60
2015,11,20,14,52,6.60
2015,11,20,14,53,6.60
2015,11,20,14,54,6.60
2015,11,20,14,56,6.60
2015,11,20,14,57,6.60
2015,11,20,14,58,6.60
2015,11,20,14,59,6.60
2015,11,20,15,01,6.60
2015,11,20,15,02,6.60
2015,11,20,15,03,6.60
2015,11,20,15,04,6.60
2015,11,20,15,06,6.60
2015,11,20,15,07,6.60
2015,11,20,15,08,6.40
2015,11,20,15,09,6.40
2015,11,20,15,11,6.40
2015,11,20,15,12,6.40
2015,11,20,15,13,6.40
2015,11,20,15,14,6.40
2015,11,20,15,16,6.40
2015,11,20,15,17,6.40
2015,11,20,15,18,6.40
2015,11,20,15,19,6.40
2015,11,20,15,21,6.40
2015,11,20,15,22,6.40
2015,11,20,15,23,6.40
2015,11,20,15,24,6.40
2015,11,20,15,26,6.40
2015,11,20,15,27,6.40
2015,11,20,15,28,6.40
2015,11,20,15,29,6.40
2015,11,20,15,31,6.40
2015,11,20,15,32,6.40
2015,11,20,15,33,6.40
2015,11,20,15,34,6.40
2015,11,20,15,35,6.40
2015,11,20,15,36,6.40
2015,11,20,15,37,6.40
2015,11,20,15,38,6.40
2015,11,20,15,39,6.40
2015,11,20,15,40,6.40
2015,11,20,15,41,6.40
2015,11,20,15,42,6.40
2015,11,20,15,43,6.30
2015,11,20,15,44,6.30
2015,11,20,15,45,6.30
2015,11,20,15,46,6.30
2015,11,20,15,47,6.30
2015,11,20,15,49,6.30
2015,11,20,15,51,6.20
2015,11,20,15,52,6.20
2015,11,20,15,53,6.20
2015,11,20,15,54,6.20
2015,11,20,15,56,6.20
2015,11,20,15,57,6.20
2015,11,20,15,58,6.20
2015,11,20,15,59,6.20
2015,11,20,16,01,6.20
2015,11,20,16,02,6.20
2015,11,20,16,03,6.20
2015,11,20,16,04,6.20
2015,11,20,16,06,6.20
2015,11,20,16,07,6.20
2015,11,20,16,08,6.20
2015,11,20,16,09,6.20
2015,11,20,16,11,6.20
2015,11,20,16,12,6.20
2015,11,20,16,13,6.20
2015,11,20,16,14,6.20
2015,11,20,16,16,6.20
2015,11,20,16,17,6.20
2015,11,20,16,18,6.20
2015,11,20,16,19,6.20
2015,11,20,16,21,6.20
2015,11,20,16,22,6.20
2015,11,20,16,23,6.20
2015,11,20,16,24,6.20
2015,11,20,16,26,6.20
2015,11,20,16,27,6.10
2015,11,20,16,28,6.20
2015,11,20,16,29,6.10
2015,11,20,16,31,6.10
2015,11,20,16,32,6.10
2015,11,20,16,33,6.10
2015,11,20,16,34,6.10
2015,11,20,16,36,6.10
2015,11,20,16,37,6.10
2015,11,20,16,38,6.10
2015,11,20,16,39,6.20
2015,11,20,16,41,6.20
2015,11,20,16,42,6.20
2015,11,20,16,43,6.20
2015,11,20,16,44,6.20
2015,11,20,16,46,6.10
2015,11,20,16,47,6.10
2015,11,20,16,48,6.10
2015,11,20,16,49,6.10
2015,11,20,16,51,6.20
2015,11,20,16,52,6.20
2015,11,20,16,53,6.20
2015,11,20,16,54,6.20
2015,11,20,16,56,6.20
2015,11,20,16,57,6.20
2015,11,20,16,58,6.20
2015,11,20,16,59,6.20
2015,11,20,17,01,6.10
2015,11,20,17,02,6.20
2015,11,20,17,03,6.20
2015,11,20,17,04,6.20
2015,11,20,17,06,6.20
2015,11,20,17,07,6.20
2015,11,20,17,08,6.20
2015,11,20,17,09,6.20
2015,11,20,17,11,6.20
2015,11,20,17,12,6.20
2015,11,20,17,13,6.20
2015,11,20,17,14,6.20
2015,11,20,17,16,6.20
2015,11,20,17,17,6.20
2015,11,20,17,18,6.20
2015,11,20,17,19,6.20
2015,11,20,17,21,6.20
2015,11,20,17,22,6.20
2015,11,20,17,23,6.20
2015,11,20,17,24,6.20
2015,11,20,17,26,6.20
2015,11,20,17,27,6.20
2015,11,20,17,28,6.20
2015,11,20,17,29,6.20
2015,11,20,17,31,6.20
2015,11,20,17,32,6.20
2015,11,20,17,33,6.20
2015,11,20,17,34,6.20
2015,11,20,17,36,6.20
2015,11,20,17,37,6.20
2015,11,20,17,38,6.20
2015,11,20,17,39,6.20
2015,11,20,17,41,6.20
2015,11,20,17,42,6.20
2015,11,20,17,43,6.20
2015,11,20,17,44,6.20
2015,11,20,17,45,6.20
2015,11,20,17,46,6.20
2015,11,20,17,47,6.20
2015,11,20,17,48,6.20
2015,11,20,17,49,6.20
2015,11,20,17,50,6.20
2015,11,20,17,51,6.20
2015,11,20,17,52,6.20
2015,11,20,17,53,6.20
2015,11,20,17,54,6.20
2015,11,20,17,55,6.20
2015,11,20,17,56,6.20
2015,11,20,17,57,6.20
2015,11,20,17,58,6.20
2015,11,20,17,59,6.20
2015,11,20,18,00,6.20
2015,11,20,18,01,6.20
2015,11,20,18,02,6.20
2015,11,20,18,03,6.20
2015,11,20,18,04,6.20
2015,11,20,18,05,6.20
2015,11,20,18,06,6.20
2015,11,20,18,08,6.20
2015,11,20,18,09,6.20
2015,11,20,18,11,6.20
2015,11,20,18,12,6.20
2015,11,20,18,13,6.20
2015,11,20,18,14,6.20
2015,11,20,18,16,6.20
2015,11,20,18,17,6.20
2015,11,20,18,18,6.20
2015,11,20,18,19,6.20
2015,11,20,18,21,6.20
2015,11,20,18,22,6.20
2015,11,20,18,23,6.20
2015,11,20,18,24,6.20
2015,11,20,18,26,6.20
2015,11,20,18,27,6.20
2015,11,20,18,28,6.20
2015,11,20,18,29,6.20
2015,11,20,18,31,6.20
2015,11,20,18,32,6.20
2015,11,20,18,33,6.20
2015,11,20,18,34,6.20
2015,11,20,18,36,6.20
2015,11,20,18,37,6.20
2015,11,20,18,38,6.20
2015,11,20,18,39,6.20
2015,11,20,18,41,6.20
2015,11,20,18,42,6.20
2015,11,20,18,43,6.20
2015,11,20,18,44,6.20
2015,11,20,18,46,6.20
2015,11,20,18,47,6.20
2015,11,20,18,48,6.20
2015,11,20,18,49,6.20
2015,11,20,18,51,6.20
2015,11,20,18,52,6.20
2015,11,20,18,53,6.20
2015,11,20,18,54,6.20
2015,11,20,18,56,6.20
2015,11,20,18,57,6.30
2015,11,20,18,58,6.30
2015,11,20,18,59,6.30
2015,11,20,19,01,6.30
2015,11,20,19,02,6.20
2015,11,20,19,03,6.20
2015,11,20,19,04,6.20
2015,11,20,19,06,6.20
2015,11,20,19,07,6.20
2015,11,20,19,08,6.20
2015,11,20,19,09,6.20
2015,11,20,19,11,6.20
2015,11,20,19,12,6.20
2015,11,20,19,13,6.20
2015,11,20,19,14,6.20
2015,11,20,19,16,6.30
2015,11,20,19,17,6.30
2015,11,20,19,18,6.30
2015,11,20,19,19,6.30
2015,11,20,19,21,6.30
2015,11,20,19,22,6.30
2015,11,20,19,23,6.20
2015,11,20,19,24,6.30
2015,11,20,19,26,6.30
2015,11,20,19,27,6.30
2015,11,20,19,28,6.30
2015,11,20,19,29,6.30
2015,11,20,19,31,6.30
2015,11,20,19,32,6.30
2015,11,20,19,33,6.30
2015,11,20,19,34,6.30
2015,11,20,19,36,6.30
2015,11,20,19,37,6.30
2015,11,20,19,38,6.30
2015,11,20,19,39,6.30
2015,11,20,19,41,6.30
2015,11,20,19,42,6.30
2015,11,20,19,43,6.30
2015,11,20,19,44,6.30
2015,11,20,19,46,6.20
2015,11,20,19,47,6.20
2015,11,20,19,48,6.20
2015,11,20,19,49,6.20
2015,11,20,19,51,6.20
2015,11,20,19,52,6.20
2015,11,20,19,53,6.20
2015,11,20,19,54,6.20
2015,11,20,19,55,6.20
2015,11,20,19,56,6.20
2015,11,20,19,57,6.20
2015,11,20,19,58,6.20
2015,11,20,19,59,6.20
2015,11,20,20,00,6.20
2015,11,20,20,01,6.20
2015,11,20,20,02,6.20
2015,11,20,20,03,6.20
2015,11,20,20,04,6.20
2015,11,20,20,05,6.10
2015,11,20,20,06,6.10
2015,11,20,20,07,6.10
2015,11,20,20,08,6.10
2015,11,20,20,09,6.10
2015,11,20,20,10,6.10
2015,11,20,20,11,6.10
2015,11,20,20,12,6.10
2015,11,20,20,13,6.10
2015,11,20,20,14,6.10
2015,11,20,20,15,6.10
2015,11,20,20,16,6.10
2015,11,20,20,17,6.10
2015,11,20,20,19,6.20
2015,11,20,20,21,6.20
2015,11,20,20,22,6.20
2015,11,20,20,23,6.20
2015,11,20,20,24,6.20
2015,11,20,20,26,6.20
2015,11,20,20,27,6.20
2015,11,20,20,28,6.20
2015,11,20,20,29,6.20
2015,11,20,20,31,6.20
2015,11,20,20,32,6.20
2015,11,20,20,33,6.20
2015,11,20,20,34,6.10
2015,11,20,20,36,6.10
2015,11,20,20,37,6.10
2015,11,20,20,38,6.10
2015,11,20,20,39,6.00
2015,11,20,20,41,6.00
2015,11,20,20,42,5.90
2015,11,20,20,43,5.90
2015,11,20,20,44,5.90
2015,11,20,20,46,5.80
2015,11,20,20,47,5.80
2015,11,20,20,48,5.80
2015,11,20,20,49,5.70
2015,11,20,20,51,5.70
2015,11,20,20,52,5.70
2015,11,20,20,53,5.70
2015,11,20,20,54,5.70
2015,11,20,20,56,5.70
2015,11,20,20,57,5.70
2015,11,20,20,58,5.70
2015,11,20,20,59,5.70
2015,11,20,21,01,5.70
2015,11,20,21,02,5.70
2015,11,20,21,03,5.70
2015,11,20,21,04,5.70
2015,11,20,21,06,5.70
2015,11,20,21,07,5.70
2015,11,20,21,08,5.70
2015,11,20,21,09,5.70
2015,11,20,21,11,5.70
2015,11,20,21,12,5.70
2015,11,20,21,13,5.70
2015,11,20,21,14,5.70
2015,11,20,21,16,5.70
2015,11,20,21,17,5.70
2015,11,20,21,18,5.80
2015,11,20,21,19,5.80
2015,11,20,21,21,5.80
2015,11,20,21,22,5.80
2015,11,20,21,23,5.80
2015,11,20,21,24,5.80
2015,11,20,21,26,5.80
2015,11,20,21,27,5.80
2015,11,20,21,28,5.80
2015,11,20,21,29,5.80
2015,11,20,21,31,5.80
2015,11,20,21,32,5.80
2015,11,20,21,33,5.80
2015,11,20,21,34,5.80
2015,11,20,21,36,5.80
2015,11,20,21,37,5.80
2015,11,20,21,38,5.80
2015,11,20,21,39,5.80
2015,11,20,21,41,5.80
2015,11,20,21,42,5.70
2015,11,20,21,43,5.70
2015,11,20,21,44,5.70
2015,11,20,21,46,5.70
2015,11,20,21,47,5.70
2015,11,20,21,48,5.70
2015,11,20,21,49,5.70
2015,11,20,21,51,5.70
2015,11,20,21,52,5.70
2015,11,20,21,53,5.70
2015,11,20,21,54,5.70
2015,11,20,21,56,5.70
2015,11,20,21,57,5.70
2015,11,20,21,58,5.70
2015,11,20,21,59,5.70
2015,11,20,22,01,5.70
2015,11,20,22,02,5.70
2015,11,20,22,03,5.70
2015,11,20,22,04,5.70
2015,11,20,22,06,5.70
2015,11,20,22,07,5.70
2015,11,20,22,08,5.70
2015,11,20,22,09,5.70
2015,11,20,22,11,5.70
2015,11,20,22,12,5.70
2015,11,20,22,13,5.80